Weather History for KRUG - December, 2012

Change the Weather History Date:

Thursday, December 6, 2012

  Actual Average Record
Temperature  
Mean Temperature 22 °F -  
Max Temperature 32 °F 23 °F 45 °F (1967)
Min Temperature 10 °F 2 °F -27 °F (1950)
Degree Days  
Heating Degree Days 43    
Moisture  
Dew Point 17 °F    
Average Humidity 87    
Maximum Humidity 100    
Minimum Humidity 80    
Precipitation  
Precipitation 0.00 in - - ()
Sea Level Pressure  
Sea Level Pressure 29.88 in    
Wind  
Wind Speed 19 mph (WNW)    
Max Wind Speed 31 mph    
Max Gust Speed 43 mph    
Visibility 10 miles    
Events      
Averages and records for this station are not official NWS values.
T = Trace of Precipitation, MM = Missing Value Source: NWS Daily Summary

Daily Weather History Graph

Daily Weather History Graph

Search for Another Location

Airport or City:

Trip Planner

Search our weather history database for the weather conditions in past years. The results will help you decide how hot, cold, wet, or windy it might be!

Date:

Astronomy

Dec. 06, 2012 Rise Set
Actual Time 8:16 AM CST 4:45 PM CST
Civil Twilight 7:40 AM CST 5:22 PM CST
Nautical Twilight 7:00 AM CST 6:01 PM CST
Astronomical Twilight 6:23 AM CST 6:39 PM CST
Moon 12:02 AM CST (12/6) 12:42 PM CST (12/6)
Length of Visible Light 9h 41m
Length of Day
8h 28m
Waning Gibbous, 49% of the Moon is Illuminated
Dec 6
Waning Gibbous
Dec 13
New
Dec 19
First Quarter
Dec 28
Full
Jan 4
Last Quarter

Hourly Weather History & Observations

Time (CST) Temp. Windchill Dew Point Humidity Pressure Visibility Wind Dir Wind Speed Gust Speed Precip Events Conditions
12:15 AM 32.0 °F 18.1 °F 26.6 °F 80% 29.65 in 10.0 mi West 27.6 mph 35.7 mph N/A   Overcast
12:35 AM 30.2 °F 15.7 °F 24.8 °F 80% 29.66 in 10.0 mi WNW 27.6 mph 38.0 mph N/A   Mostly Cloudy
12:55 AM 28.4 °F 14.1 °F 24.8 °F 86% 29.67 in 10.0 mi WNW 24.2 mph 40.3 mph N/A   Mostly Cloudy
1:15 AM 26.6 °F 10.0 °F 23.0 °F 86% 29.68 in 10.0 mi WNW 31.1 mph 42.6 mph N/A   Overcast
1:35 AM 26.6 °F 12.7 °F 23.0 °F 86% 29.69 in 10.0 mi WNW 20.7 mph 36.8 mph N/A   Overcast
1:55 AM 24.8 °F 8.7 °F 21.2 °F 86% 29.70 in 10.0 mi West 26.5 mph 34.5 mph N/A   Scattered Clouds
2:15 AM 24.8 °F 8.7 °F 19.4 °F 80% 29.71 in 10.0 mi WNW 26.5 mph 36.8 mph N/A   Clear
2:35 AM 23.0 °F 6.3 °F 17.6 °F 80% 29.73 in 10.0 mi WNW 26.5 mph 36.8 mph N/A   Clear
2:55 AM 23.0 °F 6.9 °F 17.6 °F 80% 29.74 in 10.0 mi WNW 24.2 mph 32.2 mph N/A   Clear
3:15 AM 23.0 °F 6.6 °F 17.6 °F 80% 29.75 in 10.0 mi NW 25.3 mph 31.1 mph N/A   Clear
3:35 AM 23.0 °F 8.0 °F 17.6 °F 80% 29.77 in 10.0 mi WNW 20.7 mph 25.3 mph N/A   Clear
3:55 AM 21.2 °F 4.9 °F 17.6 °F 86% 29.78 in 10.0 mi WNW 23.0 mph - N/A   Scattered Clouds
4:15 AM 21.2 °F 5.2 °F 17.6 °F 86% 29.78 in 10.0 mi NW 21.9 mph 29.9 mph N/A   Scattered Clouds
4:35 AM 21.2 °F 5.6 °F 17.6 °F 86% 29.79 in 10.0 mi NW 20.7 mph 32.2 mph N/A   Mostly Cloudy
4:55 AM 21.2 °F 4.5 °F 17.6 °F 86% 29.80 in 10.0 mi WNW 24.2 mph 29.9 mph N/A   Mostly Cloudy
5:15 AM 19.4 °F 1.8 °F 15.8 °F 86% 29.80 in 10.0 mi WNW 25.3 mph 29.9 mph N/A   Mostly Cloudy
5:35 AM 19.4 °F 3.2 °F 15.8 °F 86% 29.81 in 10.0 mi WNW 20.7 mph 28.8 mph N/A   Scattered Clouds
5:55 AM 19.4 °F 3.6 °F 15.8 °F 86% 29.81 in 10.0 mi WNW 19.6 mph 27.6 mph N/A   Scattered Clouds
6:15 AM 19.4 °F 3.6 °F 15.8 °F 86% 29.83 in 10.0 mi NW 19.6 mph 26.5 mph N/A   Mostly Cloudy
6:35 AM 17.6 °F 1.3 °F 14.0 °F 86% 29.84 in 10.0 mi WNW 19.6 mph 27.6 mph N/A   Partly Cloudy
6:55 AM 17.6 °F 2.2 °F 14.0 °F 86% 29.85 in 10.0 mi NW 17.3 mph 24.2 mph N/A   Clear
7:15 AM 15.8 °F -1.1 °F 14.0 °F 93% 29.86 in 10.0 mi WNW 19.6 mph - N/A   Clear
7:55 AM 15.8 °F -0.2 °F 14.0 °F 93% 29.87 in 10.0 mi WNW 17.3 mph - N/A   Clear
8:15 AM 15.8 °F -0.6 °F 12.2 °F 86% 29.88 in 10.0 mi WNW 18.4 mph - N/A   Clear
8:35 AM 15.8 °F 1.4 °F 12.2 °F 86% 29.89 in 10.0 mi WNW 13.8 mph 23.0 mph N/A   Clear
9:15 AM 15.8 °F 1.4 °F 12.2 °F 86% 29.90 in 10.0 mi WNW 13.8 mph - N/A   Clear
9:35 AM 17.6 °F 3.2 °F 14.0 °F 86% 29.90 in 10.0 mi West 15.0 mph - N/A   Clear
9:55 AM 17.6 °F 3.7 °F 14.0 °F 86% 29.92 in 10.0 mi WNW 13.8 mph - N/A   Partly Cloudy
10:15 AM 19.4 °F 6.0 °F 14.0 °F 80% 29.92 in 10.0 mi WNW 13.8 mph - N/A   Mostly Cloudy
10:35 AM 19.4 °F 5.5 °F 15.8 °F 86% 29.92 in 10.0 mi WNW 15.0 mph 19.6 mph N/A   Overcast
10:55 AM 21.2 °F 8.3 °F 15.8 °F 80% 29.92 in 10.0 mi WNW 13.8 mph - N/A   Overcast
11:15 AM 23.0 °F 10.1 °F 17.6 °F 80% 29.92 in 10.0 mi WNW 15.0 mph - N/A   Overcast
11:35 AM 23.0 °F 10.1 °F 19.4 °F 86% 29.92 in 10.0 mi WNW 15.0 mph 20.7 mph N/A   Overcast
11:55 AM 24.8 °F 12.4 °F 19.4 °F 80% 29.92 in 10.0 mi WNW 15.0 mph 21.9 mph N/A   Overcast
12:15 PM 24.8 °F 10.3 °F 21.2 °F 86% 29.91 in 10.0 mi WNW 20.7 mph 28.8 mph N/A   Overcast
12:35 PM 26.6 °F 14.7 °F 21.2 °F 80% 29.91 in 10.0 mi WNW 15.0 mph 23.0 mph N/A   Overcast
12:55 PM 26.6 °F 14.3 °F 23.0 °F 86% 29.91 in 10.0 mi WNW 16.1 mph - N/A   Overcast
1:15 PM 26.6 °F 15.2 °F 23.0 °F 86% 29.91 in 10.0 mi WNW 13.8 mph - N/A   Overcast
1:35 PM 28.4 °F 16.6 °F 23.0 °F 80% 29.91 in 10.0 mi WNW 16.1 mph - N/A   Overcast
1:55 PM 28.4 °F 15.1 °F 23.0 °F 80% 29.90 in 10.0 mi WNW 20.7 mph 25.3 mph N/A   Overcast
2:15 PM 28.4 °F 16.2 °F 23.0 °F 80% 29.92 in 10.0 mi NW 17.3 mph 24.2 mph N/A   Overcast
2:35 PM 26.6 °F 16.2 °F 23.0 °F 86% 29.91 in 10.0 mi NW 11.5 mph 16.1 mph N/A   Overcast
2:55 PM 26.6 °F 16.8 °F 23.0 °F 86% 29.92 in 10.0 mi WNW 10.4 mph - N/A   Overcast
3:15 PM 26.6 °F 15.2 °F 23.0 °F 86% 29.92 in 10.0 mi WNW 13.8 mph - N/A   Overcast
3:35 PM 26.6 °F 17.5 °F 23.0 °F 86% 29.92 in 10.0 mi WNW 9.2 mph 18.4 mph N/A   Overcast
3:55 PM 26.6 °F 14.7 °F 23.0 °F 86% 29.92 in 10.0 mi WNW 15.0 mph - N/A   Overcast
4:15 PM 26.6 °F 15.2 °F 21.2 °F 80% 29.92 in 10.0 mi WNW 13.8 mph - N/A   Mostly Cloudy
4:35 PM 24.8 °F 13.4 °F 21.2 °F 86% 29.93 in 10.0 mi WNW 12.7 mph - N/A   Partly Cloudy
4:55 PM 23.0 °F 12.4 °F 19.4 °F 86% 29.93 in 10.0 mi WNW 10.4 mph - N/A   Partly Cloudy
5:15 PM 23.0 °F 12.4 °F 19.4 °F 86% 29.94 in 10.0 mi NW 10.4 mph - N/A   Clear
5:35 PM 19.4 °F 7.2 °F 17.6 °F 93% 29.94 in 10.0 mi NW 11.5 mph - N/A   Clear
5:55 PM 19.4 °F 7.9 °F 17.6 °F 93% 29.94 in 10.0 mi NW 10.4 mph - N/A   Clear
6:15 PM 17.6 °F 6.4 °F 15.8 °F 93% 29.94 in 10.0 mi NW 9.2 mph - N/A   Partly Cloudy
6:35 PM 17.6 °F 7.3 °F 15.8 °F 93% 29.94 in 10.0 mi NW 8.1 mph - N/A   Mostly Cloudy
6:55 PM 17.6 °F 7.3 °F 15.8 °F 93% 29.94 in 10.0 mi WNW 8.1 mph - N/A   Overcast
7:15 PM 19.4 °F 10.4 °F 17.6 °F 93% 29.94 in 10.0 mi WNW 6.9 mph - N/A   Mostly Cloudy
7:35 PM 15.8 °F 7.2 °F 15.8 °F 100% 29.94 in 10.0 mi West 5.8 mph - N/A   Partly Cloudy
7:55 PM 15.8 °F 6.1 °F 15.8 °F 100% 29.93 in 10.0 mi WNW 6.9 mph - N/A   Clear
8:35 PM 15.8 °F 5.1 °F 14.0 °F 93% 29.95 in 10.0 mi West 8.1 mph - N/A   Clear
8:55 PM 15.8 °F 6.1 °F 14.0 °F 93% 29.95 in 10.0 mi West 6.9 mph - N/A   Clear
9:15 PM 14.0 °F 3.9 °F 14.0 °F 100% 29.96 in 10.0 mi West 6.9 mph - N/A   Clear
9:35 PM 14.0 °F 2.0 °F 14.0 °F 100% 29.97 in 10.0 mi West 9.2 mph - N/A   Clear
9:55 PM 12.2 °F 1.7 °F 10.4 °F 92% 29.96 in 10.0 mi West 6.9 mph - N/A   Clear
10:15 PM 14.0 °F 2.9 °F 14.0 °F 100% 29.97 in 10.0 mi WNW 8.1 mph - N/A   Clear
10:35 PM 12.2 °F 0.7 °F 10.4 °F 92% 29.97 in 10.0 mi WNW 8.1 mph - N/A   Clear
10:55 PM 14.0 °F 3.9 °F 10.4 °F 86% 29.97 in 10.0 mi NW 6.9 mph - N/A   Clear
11:15 PM 12.2 °F 6.1 °F 10.4 °F 92% 29.97 in 10.0 mi WNW 3.5 mph - N/A   Clear
11:35 PM 12.2 °F 4.3 °F 10.4 °F 92% 29.97 in 10.0 mi WNW 4.6 mph - N/A   Clear
11:55 PM 10.4 °F 2.2 °F 10.4 °F 100% 29.97 in 10.0 mi NW 4.6 mph - N/A   Clear